User: anonymous   Login
Location: Unspecified
(0.0000°N, 0.0000°E)
Time: 03:18:44
(UTC+00:00)
Language:

COSMOS 2406 - Orbit

View from above orbital plane
View from above orbital plane
View from above satellite
View from above satellite

Ground track
Ground track

The orbit data is extracted from the following two-line orbital elements,

1 28352U 04021A   18202.83418755 -.00000155  00000-0 -59225-4 0  9991
2 28352  71.0017  10.2148 0015241 221.2480 138.7491 14.11636259727249
Epoch (UTC): 21 July 2018 20:01:13
Eccentricity: 0.0015241
inclination: 71.0017°
perigee height: 843 km
apogee height: 865 km
right ascension of ascending node: 10.2148°
argument of perigee: 221.2480°
revolutions per day: 14.11636259
mean anomaly at epoch: 138.7491°
orbit number at epoch: 72724

The dashed part of the orbit path shows where the satellite is in the earth's shadow,  

DLR